Theta_e
320 321 320 320 320 317 312 313 314 312 314 316 317 319 319 318 316 316 317 318 318 317 317 317 317 316 317 315 314 316 319 320 321 323 324 325 325 326 326 326 326 326 327 329 328 328 328 328 327 326 325 324 324 326 326 327 328 327 327 328 328 329 330
321 320 319 320 318 314 312 315 318 317 315 314 314 316 316 314 312 312 312 312 313 314 314 313 311 309 308 309 308 309 312 312 311 315 320 321 321 321 322 324 323 324 326 327 327 327 327 327 327 327 327 326 325 324 323 325 327 326 326 327 329 329 328
321 318 318 320 318 315 314 313 315 317 315 312 311 311 313 312 310 310 309 307 308 310 311 311 309 307 305 306 306 305 306 307 305 307 310 313 313 312 316 321 322 322 324 323 323 324 324 324 326 326 326 326 326 325 321 323 325 325 326 325 324 325 326
320 318 319 319 319 319 317 315 316 318 317 313 309 309 311 310 309 309 307 307 306 307 309 310 310 309 306 306 306 306 306 306 306 305 305 306 307 306 310 317 319 318 319 321 322 321 321 323 324 324 324 322 323 323 320 320 320 319 322 321 318 319 322
319 317 319 319 319 320 319 318 319 319 317 314 310 310 309 308 309 307 306 308 307 306 307 308 309 309 308 307 307 307 306 306 306 306 305 305 306 307 306 308 311 313 313 315 316 315 314 317 319 320 319 319 320 321 320 320 318 315 315 316 314 315 316
317 315 318 320 319 320 320 319 319 319 319 316 314 313 309 307 310 310 310 312 308 306 307 306 307 307 307 308 306 306 307 306 306 306 305 305 306 307 306 305 310 314 313 309 307 308 307 308 313 317 317 317 317 318 318 318 317 316 316 316 315 316 316
318 314 316 320 319 319 319 320 319 318 319 318 316 316 311 309 313 312 312 312 308 307 307 306 306 306 307 312 309 306 306 306 306 306 305 305 305 305 305 306 308 310 310 308 307 309 310 308 311 314 315 315 315 315 315 315 315 316 317 318 319 320 320
320 317 316 319 319 318 319 320 319 318 319 319 318 318 313 309 312 312 310 309 308 307 308 306 307 305 307 312 310 306 306 306 306 306 305 305 304 304 304 304 307 307 306 308 309 312 313 311 310 308 307 310 313 314 315 316 315 315 316 317 318 318 319
321 319 318 318 319 319 319 319 320 318 318 319 319 319 315 309 310 311 310 310 308 308 308 307 308 307 305 309 309 306 306 306 306 306 305 305 304 304 303 303 307 308 302 304 307 307 307 308 310 311 308 308 312 313 314 314 314 315 316 317 318 318 318
321 321 319 318 319 320 319 319 320 318 318 318 319 319 316 311 310 311 311 311 309 308 309 307 308 308 306 308 308 306 306 306 306 306 305 305 304 304 304 303 307 309 303 302 304 303 302 303 306 311 312 311 311 312 313 314 314 315 316 316 315 316 316
320 321 320 320 320 321 320 319 319 319 318 317 319 319 316 312 312 311 311 312 310 309 309 308 309 308 307 309 308 306 306 305 306 306 305 305 304 304 304 303 306 310 305 302 303 302 302 302 302 306 311 313 313 313 313 313 312 311 312 313 314 315 317
317 319 320 321 321 322 321 320 319 320 320 318 318 318 315 313 313 312 312 313 312 310 310 309 309 308 309 311 310 308 307 305 306 307 305 305 305 304 305 303 305 308 305 302 305 304 303 303 303 304 308 310 312 313 314 313 313 310 310 311 311 311 313
318 318 320 321 321 322 322 321 320 320 320 319 319 318 315 314 314 313 313 314 313 312 311 310 310 309 309 311 310 311 311 306 307 309 307 306 305 304 305 305 305 306 304 303 305 305 305 305 303 303 305 307 309 311 312 312 313 312 311 312 311 309 308
321 320 320 321 322 322 322 322 321 321 321 321 320 319 317 316 316 315 315 315 315 314 312 311 311 309 310 311 310 312 312 307 308 311 310 307 306 305 305 306 307 307 304 304 304 304 307 307 307 307 308 309 310 311 311 311 312 312 312 312 312 311 310
322 320 320 321 322 322 322 323 323 322 322 321 320 320 319 318 318 318 317 317 317 316 314 313 312 311 311 311 310 310 310 307 309 312 311 308 308 307 305 305 307 307 304 304 303 304 306 307 307 308 309 309 310 310 310 310 311 311 311 310 310 311 311
319 319 319 319 320 321 321 322 323 323 323 322 322 321 320 319 319 319 318 319 318 318 316 315 314 313 312 311 310 309 309 308 308 310 308 307 310 310 307 305 306 306 304 304 303 303 305 305 306 308 308 308 308 309 309 309 309 309 310 309 309 309 310
319 318 318 319 318 319 318 319 320 322 322 322 322 322 321 320 320 320 320 320 320 319 319 317 316 314 313 312 311 311 310 309 308 308 307 307 309 309 307 306 306 306 305 304 303 304 306 307 307 306 306 306 307 308 309 310 310 310 310 310 309 309 309
321 320 319 319 319 319 319 318 318 319 320 320 320 322 322 321 320 320 320 320 320 320 319 318 317 316 314 313 313 311 311 310 309 308 308 307 307 307 305 304 305 305 304 304 303 304 305 305 304 303 303 305 306 306 306 307 308 309 310 310 309 308 308
323 323 322 321 321 320 319 319 318 317 319 321 322 321 322 321 320 321 321 321 320 320 319 319 318 317 315 314 314 313 312 311 310 309 309 308 307 306 305 304 304 304 303 304 303 303 303 302 301 301 302 302 303 303 303 303 304 306 307 308 308 308 309
323 324 324 323 323 322 321 320 320 318 319 322 323 323 322 322 321 321 321 321 321 320 320 319 318 317 316 316 315 314 313 312 311 310 309 308 307 306 305 304 303 303 303 303 303 303 302 301 300 300 300 300 301 303 304 304 304 306 307 307 307 308 308
318 320 321 322 323 324 324 323 322 321 322 323 323 323 323 322 322 321 321 321 321 321 320 319 318 317 317 316 315 315 313 312 312 311 310 308 307 306 305 304 303 303 303 303 303 303 301 300 299 298 298 298 299 300 301 303 304 306 306 307 307 307 308
311 312 316 318 319 321 321 321 322 322 322 323 323 323 323 322 322 321 321 321 321 321 320 319 318 318 317 316 315 315 314 313 312 310 310 308 307 306 305 304 303 303 303 303 303 303 302 301 299 299 298 297 296 296 297 299 302 304 306 306 306 306 307
308 309 311 313 315 317 318 319 320 320 320 321 321 322 322 322 322 322 322 321 321 320 320 319 318 318 317 316 315 315 314 313 312 311 309 308 307 306 305 303 303 303 303 303 303 304 303 303 301 300 299 297 296 296 296 297 299 301 303 304 305 305 306
308 309 309 310 311 313 315 316 319 319 318 318 318 319 319 320 321 322 322 320 320 319 318 318 318 317 316 315 315 314 314 313 312 311 309 308 306 305 304 303 303 303 303 303 303 303 303 303 302 301 300 299 297 296 296 296 296 297 298 300 301 303 304
308 309 309 310 310 311 312 313 316 318 318 318 317 317 317 317 316 319 320 320 320 319 318 318 317 316 316 315 314 314 313 313 312 311 309 307 305 304 303 303 303 303 303 303 302 302 301 300 301 300 300 299 297 297 296 296 296 296 296 296 297 299 301
309 309 309 310 310 311 311 312 313 315 316 316 316 317 317 316 313 313 316 318 319 319 318 317 316 316 316 315 314 313 313 312 312 310 308 307 305 304 303 303 303 303 302 302 300 299 298 298 298 298 298 297 296 296 296 296 296 296 296 297 297 297 298
309 309 309 310 310 311 312 312 312 313 314 315 316 316 316 316 315 314 315 316 316 317 317 317 317 316 316 314 314 313 312 311 310 309 308 307 306 305 304 303 303 303 301 299 297 297 297 297 297 297 297 296 296 297 297 297 297 297 296 297 297 297 297
309 309 309 309 310 310 311 312 312 313 313 314 315 315 315 315 315 316 315 314 315 317 317 317 317 316 315 314 313 313 312 310 309 309 307 306 305 304 304 303 303 302 300 298 296 296 296 296 295 295 295 296 296 296 297 298 298 297 298 298 298 299 299
310 309 309 309 310 310 311 312 312 312 312 313 314 314 315 315 315 315 314 313 315 317 316 316 316 316 315 314 313 312 311 310 309 308 306 304 304 303 303 302 301 299 298 297 296 295 295 295 295 295 295 296 296 296 296 297 297 297 298 298 298 299 299
310 310 310 310 310 310 311 311 312 313 313 312 313 313 314 315 315 315 314 314 315 316 315 315 315 315 314 313 312 311 309 308 307 305 304 303 302 302 301 300 299 298 297 296 295 294 294 295 295 295 296 296 296 296 296 297 297 297 297 297 297 297 297
309 309 310 310 310 311 311 311 312 313 313 313 313 313 313 313 314 314 314 314 315 315 315 314 314 313 312 311 310 309 306 304 303 302 301 301 301 300 300 299 298 297 296 295 295 295 295 296 296 296 296 295 295 296 296 296 296 297 297 297 297 297 297
309 309 309 310 310 310 311 311 312 313 313 313 313 312 312 313 313 314 314 314 314 314 314 314 312 310 309 308 308 307 305 303 302 301 300 299 299 299 299 298 297 296 296 297 297 297 296 296 296 296 295 295 295 295 295 295 295 296 296 296 297 297 297
309 309 309 310 310 310 311 311 311 312 312 312 312 312 312 312 312 313 314 313 312 312 313 312 310 308 307 307 306 305 304 303 302 300 298 296 296 296 296 297 297 298 298 298 298 297 297 296 296 295 294 294 294 294 294 294 294 295 295 295 295 295 296
309 309 309 310 310 310 310 310 311 311 311 311 311 311 312 311 311 312 312 311 311 311 310 309 308 306 305 305 305 304 303 301 299 296 294 294 293 294 295 297 298 298 298 298 298 297 297 296 295 294 293 293 293 293 293 293 293 293 293 293 293 293 293
309 309 309 309 309 309 309 309 309 310 310 310 311 311 311 311 311 311 311 310 310 309 307 306 305 305 304 304 303 302 299 297 295 293 293 293 292 294 295 297 298 298 297 297 297 296 296 295 294 293 293 293 293 293 292 292 291 291 291 291 291 291 292
308 309 309 309 308 308 308 308 309 309 310 310 310 310 310 310 310 310 310 309 307 306 304 304 303 303 303 301 299 297 295 294 293 292 292 293 293 294 295 297 297 297 296 296 295 295 294 293 293 293 293 293 293 292 292 291 291 291 290 290 290 291 291
308 308 308 307 307 307 308 308 308 309 309 309 309 309 308 308 308 308 308 306 305 303 303 302 302 301 300 298 296 295 293 293 292 293 293 293 294 294 295 295 296 296 295 295 294 294 293 293 293 293 293 293 292 292 291 291 290 290 290 290 290 290 291
Wind_Speed
9 9 9 8 7 5 4 4 4 4 5 4 3 4 4 3 4 4 4 5 5 5 5 5 4 4 3 2 2 2 2 2 1 1 2 1 2 3 2 4 6 3 6 8 6 6 6 6 8 8 9 10 11 14 15 15 16 15 13 11 12 13 13
9 10 9 8 7 5 3 4 4 3 4 4 3 4 4 3 4 6 5 5 5 5 4 4 4 5 5 5 4 3 3 2 2 3 2 0 1 1 2 3 4 4 2 4 4 5 7 7 7 8 9 10 11 12 14 15 15 15 16 16 16 17 16
11 11 10 8 7 6 4 4 4 4 3 3 3 3 4 3 4 5 5 6 6 5 4 5 6 6 7 7 6 6 5 4 4 3 2 1 0 1 1 2 2 3 2 3 3 4 5 6 7 8 8 9 10 12 14 15 14 15 18 18 18 19 20
13 13 12 10 9 7 6 5 4 5 4 2 2 3 3 2 3 4 5 6 6 6 6 6 6 6 7 8 8 8 8 7 7 6 5 3 2 2 2 2 1 1 2 1 2 4 4 4 6 7 7 8 9 11 13 15 16 18 20 21 21 20 21
15 14 13 12 10 9 8 6 6 6 5 3 2 2 1 1 2 3 5 5 6 6 6 6 5 5 6 6 7 7 7 8 8 7 7 6 5 4 2 2 2 1 1 2 4 7 6 5 5 6 6 7 8 8 10 12 14 15 16 19 21 21 21
15 15 13 12 11 10 8 8 7 6 6 5 3 3 2 1 1 2 3 3 4 5 5 6 5 4 4 5 5 6 6 7 7 7 7 7 6 5 4 4 4 2 0 1 3 4 5 5 4 5 6 6 7 8 8 10 12 12 11 11 13 15 17
15 15 13 12 12 11 9 9 9 7 7 7 6 5 4 2 2 2 1 2 4 5 4 5 5 5 4 3 4 5 6 6 7 8 7 7 7 6 5 4 3 1 1 3 3 2 3 3 2 4 6 6 7 9 8 8 8 8 9 8 7 8 10
15 15 14 12 12 12 11 10 10 8 8 7 7 7 6 4 4 4 4 4 5 5 4 5 4 5 3 1 3 4 5 6 7 7 7 8 8 7 6 5 4 3 3 3 3 2 2 4 4 4 5 5 7 8 7 7 6 6 6 6 6 6 7
15 15 14 13 13 13 12 11 11 10 9 8 8 9 8 6 5 6 6 6 7 6 6 5 4 5 4 2 4 5 5 6 7 7 8 8 8 7 6 5 4 4 5 4 3 3 2 3 5 6 6 6 6 7 7 6 5 5 4 3 4 5 5
16 15 14 14 14 14 13 13 12 11 11 10 10 12 10 8 7 8 7 8 8 7 7 7 5 5 5 3 5 6 6 7 7 7 7 8 8 7 7 6 4 4 6 5 4 4 4 4 3 3 5 6 6 7 7 7 7 6 5 5 5 5 5
19 17 15 14 14 14 14 13 12 12 13 12 12 13 12 10 10 10 8 9 10 9 9 8 7 7 5 4 5 6 6 7 7 6 6 7 7 7 6 6 5 3 5 6 5 4 5 5 4 2 3 5 6 6 7 9 10 9 9 8 7 6 7
21 19 17 15 14 14 14 14 13 13 13 13 13 15 14 12 12 12 10 11 11 10 11 9 9 9 6 5 6 6 6 6 5 6 6 5 6 6 6 6 5 3 6 8 7 7 7 7 5 4 3 4 6 7 8 9 12 12 11 11 11 11 12
20 20 18 16 15 15 15 14 14 14 14 14 15 16 16 13 14 14 12 12 12 12 12 11 11 11 8 8 7 5 7 7 4 5 7 6 6 6 6 6 6 5 7 8 7 8 10 10 9 9 7 5 5 7 8 9 12 13 12 13 15 15 15
18 19 18 17 16 16 15 15 15 14 15 15 15 16 17 16 15 15 14 14 14 14 15 14 13 12 10 10 8 7 9 9 5 5 7 8 8 7 5 4 5 7 9 9 8 8 7 9 11 11 10 9 7 8 8 9 12 14 14 13 14 15 15
17 18 18 18 18 17 17 15 15 15 15 16 16 17 17 17 17 17 16 16 16 16 16 15 15 14 12 12 11 11 12 11 6 7 9 9 8 9 9 5 4 7 9 10 10 9 7 7 8 8 8 9 9 9 10 10 12 14 15 15 15 15 16
22 22 21 21 20 20 19 17 15 15 15 16 17 18 18 18 18 19 18 18 18 17 17 17 17 17 15 14 14 15 15 13 10 10 12 10 7 9 11 9 7 9 12 12 12 11 9 9 8 7 8 9 11 12 12 13 14 16 17 18 17 15 15
23 25 25 24 23 23 23 22 20 18 18 19 19 19 19 19 19 20 20 19 19 19 18 18 18 18 17 16 16 17 17 16 14 14 14 11 9 10 12 11 9 10 11 12 13 12 9 8 8 9 10 11 11 12 12 13 15 16 17 19 19 18 17
17 20 23 24 23 22 23 24 23 22 23 23 23 22 21 21 21 21 21 21 20 20 19 18 19 20 19 18 18 18 19 18 18 17 15 14 13 13 14 13 11 12 13 13 13 11 9 10 12 12 12 12 11 12 13 14 15 15 17 19 21 21 20
14 14 16 18 20 22 25 28 27 26 25 24 23 23 22 23 23 23 23 22 21 20 20 19 20 21 20 20 21 21 20 20 19 18 17 16 16 16 16 15 14 14 15 14 14 14 14 15 16 16 15 15 15 15 16 17 17 17 18 20 21 21 20
10 10 12 14 17 19 22 26 27 27 25 24 23 22 22 23 23 24 24 23 23 23 22 22 23 23 22 22 23 22 20 20 19 17 17 16 16 17 17 16 16 16 16 15 15 15 16 17 17 17 17 17 17 17 18 18 18 18 18 19 19 19 19
6 7 9 12 13 15 17 19 21 21 22 23 21 20 21 20 21 22 23 24 25 25 24 25 24 23 23 23 24 23 21 21 19 17 17 17 17 18 18 17 17 17 17 17 17 16 17 18 18 18 18 17 18 18 19 19 19 19 19 19 19 19 19
7 7 7 8 10 12 13 14 16 18 20 21 20 19 20 20 20 21 22 23 24 24 26 27 24 23 23 25 26 25 23 22 20 17 18 18 17 18 19 18 18 19 19 20 20 19 20 20 20 20 20 20 20 20 20 20 19 19 19 19 19 19 19
8 8 8 9 9 10 11 11 13 14 14 17 18 17 18 20 21 22 21 21 23 26 28 26 24 26 28 27 26 26 24 23 20 17 17 17 16 18 18 18 19 21 22 22 22 23 24 23 23 24 24 23 22 22 22 22 21 21 20 20 20 19 20
8 9 9 10 11 11 11 11 12 12 12 13 15 15 15 17 18 20 21 22 25 29 29 25 25 30 33 32 30 27 26 25 22 20 20 19 18 18 17 17 18 21 23 24 24 25 26 26 26 26 27 26 25 24 24 24 25 24 24 25 24 22 21
9 9 10 10 11 11 12 12 13 13 14 15 15 15 16 17 17 17 19 22 26 30 31 28 28 32 35 36 34 29 28 28 26 25 24 23 21 19 18 18 19 21 23 24 24 25 26 27 28 29 29 29 29 28 27 27 27 26 27 28 29 28 26
9 10 10 10 11 11 12 13 14 14 15 16 16 17 18 19 19 17 18 22 25 27 28 28 29 32 35 37 36 32 30 28 27 26 24 23 22 22 21 21 22 23 23 24 25 25 25 26 26 28 29 31 32 32 31 30 29 28 28 29 31 32 31
10 10 10 11 11 12 13 13 14 15 15 16 17 18 20 20 20 19 18 21 22 22 25 28 31 32 32 34 36 33 30 28 27 25 24 24 24 24 24 23 23 23 23 22 23 23 23 23 24 26 27 29 30 31 31 31 31 31 31 32 33 34 33
11 11 11 12 12 13 13 14 14 15 15 16 17 18 19 21 22 21 21 22 20 21 26 30 32 31 29 31 36 34 30 30 29 25 24 25 25 25 24 24 23 23 23 22 22 24 25 25 27 28 29 30 30 30 29 29 30 31 30 29 29 28 27
12 12 12 13 13 14 14 14 15 15 15 16 17 17 18 19 20 20 21 21 20 24 29 30 32 32 29 29 32 32 31 31 28 25 24 23 23 23 23 23 22 22 22 22 24 27 28 27 28 30 30 31 31 30 30 29 29 30 30 29 27 27 27
12 12 13 13 14 14 14 15 15 15 15 16 16 17 18 18 18 19 20 20 22 27 30 31 32 31 28 28 29 29 29 27 23 19 19 19 19 19 19 21 22 22 23 23 26 29 29 27 28 29 29 30 30 30 30 29 29 30 30 32 32 32 32
13 14 14 14 14 14 14 15 15 15 15 16 16 17 18 18 18 19 20 21 24 29 30 30 30 28 27 28 28 27 24 19 15 13 12 14 15 14 15 18 22 24 25 26 28 30 30 29 29 29 29 29 29 28 28 29 29 29 28 29 30 30 30
15 15 15 15 15 15 15 15 15 15 15 16 16 16 16 17 17 19 20 22 24 27 28 28 28 26 27 28 27 26 23 18 15 14 13 12 12 11 13 17 21 25 25 24 25 29 31 31 31 30 30 29 27 26 26 27 27 26 26 26 26 26 26
16 16 16 16 15 16 15 15 15 15 15 16 15 15 16 17 19 21 22 23 24 25 27 28 28 28 28 28 26 25 22 18 16 15 14 13 13 14 15 16 18 21 22 22 25 29 32 33 33 32 31 31 30 27 25 25 25 26 28 30 31 31 31
18 18 17 16 16 16 15 15 15 15 16 16 16 15 16 19 22 24 23 22 22 24 26 28 28 28 27 26 23 20 17 15 14 13 14 16 16 16 15 14 16 21 23 24 28 31 33 34 34 33 33 33 33 31 29 30 32 31 31 32 34 34 34
19 18 17 17 17 17 16 16 16 16 16 17 17 17 18 20 21 23 22 21 20 21 23 25 26 25 23 20 16 13 12 13 14 14 16 18 17 17 16 13 17 23 26 27 30 32 33 34 35 35 35 35 34 33 32 34 34 32 30 29 29 29 28
20 19 18 18 18 18 17 17 16 16 17 17 16 17 21 22 22 22 22 21 19 21 23 24 22 19 16 13 10 10 11 13 14 14 16 17 17 18 17 15 18 23 25 27 28 30 32 33 34 35 34 32 31 29 28 29 29 28 27 27 26 26 26
20 20 20 20 20 19 19 18 18 18 18 17 15 17 21 23 23 22 22 22 22 23 22 20 16 12 10 9 9 10 11 13 13 14 15 16 16 17 18 18 20 23 24 25 26 28 30 30 29 28 27 25 23 23 23 22 21 20 21 22 23 24 24
Wind_Direction
161 161 158 154 156 161 141 114 100 95 95 95 94 88 82 83 91 85 76 72 59 45 46 46 53 68 73 76 97 137 130 112 108 42 17 10 11 358 331 284 297 288 203 208 223 232 246 259 260 260 256 256 256 255 257 257 255 252 250 248 248 252 251
166 165 160 158 164 169 150 130 127 122 113 107 103 104 101 89 86 85 78 80 77 67 58 49 48 58 65 71 72 82 90 89 127 129 124 23 335 315 353 338 327 339 280 240 248 259 264 268 270 263 254 252 254 262 271 269 260 256 257 259 261 266 265
168 166 165 167 172 176 172 161 151 142 131 124 113 110 109 94 74 73 66 62 68 72 67 51 46 48 56 66 70 74 75 64 62 86 119 138 280 222 100 47 3 344 318 295 301 294 289 292 288 281 279 278 272 268 271 269 265 261 261 266 272 274 274
172 169 172 178 177 177 181 175 162 157 160 166 132 117 122 91 57 52 44 42 45 48 49 45 40 40 48 58 63 68 70 70 68 67 73 72 56 72 103 106 96 258 207 238 281 260 270 302 299 290 290 293 292 283 276 269 264 261 260 265 271 273 274
183 178 177 184 181 180 185 178 173 175 179 196 191 161 169 39 33 22 27 33 32 34 35 33 33 34 41 49 54 57 57 59 62 62 64 64 64 65 72 118 105 359 208 200 240 245 254 269 280 289 284 284 289 289 290 289 285 280 270 265 266 267 269
194 190 184 187 185 183 188 186 183 183 185 197 204 206 241 297 307 353 29 31 13 21 21 17 19 18 30 41 37 39 41 41 45 46 48 50 54 57 55 77 90 69 336 273 256 250 265 262 262 290 292 287 285 281 285 286 288 294 293 286 275 265 263
198 198 191 191 193 188 190 194 193 191 195 201 202 213 245 259 224 268 297 291 334 1 5 4 2 360 26 44 16 23 30 26 30 31 29 31 33 36 38 49 70 75 6 357 8 12 327 310 280 278 283 292 292 286 286 282 275 278 281 286 278 257 254
200 203 197 196 200 195 193 197 198 195 198 205 203 213 246 262 233 252 273 286 313 330 336 347 349 348 17 48 340 1 19 19 21 22 23 25 24 25 25 29 27 358 357 14 17 25 343 318 309 295 295 309 306 297 296 290 284 278 268 266 266 257 254
200 205 202 201 204 201 198 198 200 200 199 206 205 211 242 268 255 260 270 277 297 309 313 325 328 331 343 326 321 338 350 360 8 13 18 18 19 23 21 28 35 358 356 18 10 346 330 325 329 327 326 330 319 311 311 307 300 297 292 287 277 264 256
203 206 205 205 207 207 205 202 203 203 199 203 205 214 242 266 262 265 266 269 285 294 299 308 306 310 323 309 310 326 332 342 354 2 6 5 9 15 13 22 41 12 0 17 11 351 355 357 354 329 320 323 317 312 313 309 304 300 298 298 295 296 293
210 210 210 211 210 210 210 208 208 208 206 207 205 219 246 263 263 269 265 263 277 284 290 297 292 297 305 284 295 312 315 325 335 342 352 355 359 6 5 11 27 8 354 6 7 1 7 1 360 356 312 304 300 297 296 294 294 294 290 285 281 282 280
220 219 217 216 216 216 216 215 215 214 213 213 210 225 250 259 259 269 266 261 271 278 284 286 282 292 289 258 278 292 293 311 315 312 326 335 341 353 354 357 12 360 350 2 358 349 354 352 351 350 305 278 275 276 279 283 287 292 293 286 275 264 257
226 227 226 225 225 224 225 224 224 222 221 220 218 230 249 252 251 262 264 259 264 271 279 280 279 285 277 264 272 264 272 298 294 280 300 315 325 337 340 342 349 344 349 0 356 344 343 340 342 345 332 311 287 277 277 278 279 285 290 288 285 285 282
231 231 231 232 233 232 233 232 230 229 226 226 223 228 242 246 244 250 253 251 256 265 272 274 274 277 268 264 266 246 262 290 283 248 273 297 309 315 323 330 322 322 338 350 351 346 335 326 330 335 331 321 303 288 283 280 281 285 288 286 286 290 292
240 240 239 238 238 238 238 237 235 234 230 230 230 228 234 236 234 239 243 241 243 252 262 264 266 269 262 258 263 260 267 284 271 235 256 281 293 296 306 314 292 298 318 331 340 343 330 316 315 310 304 299 291 287 283 280 281 284 286 287 287 288 291
243 245 248 246 244 244 243 242 240 237 233 232 231 229 232 232 230 232 235 232 232 238 244 248 254 263 262 257 264 270 273 278 268 252 262 271 259 267 291 305 297 299 314 325 333 337 331 323 319 302 290 289 286 286 285 283 285 286 287 291 293 292 292
243 242 242 241 244 247 246 244 242 241 240 238 235 233 236 236 230 229 231 229 228 229 229 230 240 255 260 257 261 268 273 276 271 264 268 265 241 243 270 286 289 294 306 314 321 328 325 311 306 302 298 297 294 292 290 287 289 289 288 292 295 293 291
239 241 242 240 242 245 245 245 245 244 245 245 241 236 237 240 237 231 230 229 228 229 228 225 231 246 254 256 259 262 268 273 270 267 266 260 251 252 263 274 279 284 294 303 311 315 308 299 303 305 303 299 293 289 285 282 281 280 280 284 288 291 293
235 244 248 245 244 245 247 248 249 246 244 243 240 235 234 239 240 233 230 231 231 230 231 229 231 239 248 256 261 262 264 265 263 261 259 257 259 261 265 270 275 281 289 296 301 302 304 307 311 311 308 305 301 295 292 290 286 282 279 279 282 286 288
243 246 249 250 251 249 247 249 251 248 244 240 237 235 234 236 237 232 229 231 232 230 230 229 230 236 244 252 256 257 258 256 251 248 248 250 257 264 267 271 275 280 286 290 294 300 304 308 310 310 309 307 305 300 296 295 292 286 282 281 282 282 282
275 263 258 259 260 256 251 250 249 244 239 238 238 236 235 234 232 232 231 233 234 232 228 225 225 232 239 242 246 248 248 247 244 240 244 250 255 261 268 273 276 279 283 287 292 297 301 304 305 305 303 300 297 294 292 291 289 286 284 283 282 283 283
289 288 281 277 275 273 271 264 255 246 240 241 244 241 237 235 232 233 235 235 233 230 227 226 228 232 232 231 237 241 241 243 242 238 245 254 257 261 267 272 275 277 280 285 291 294 298 302 303 304 304 302 298 294 290 287 285 283 283 282 282 283 283
280 281 277 277 279 279 281 278 269 263 255 250 249 245 241 240 238 238 238 236 233 229 228 230 234 233 227 224 228 234 238 242 239 232 238 248 253 259 266 269 273 277 279 282 286 290 293 297 301 303 304 302 299 294 289 284 280 279 279 278 279 280 280
279 277 273 273 273 271 273 274 269 264 258 252 250 249 247 244 241 242 245 246 241 233 230 235 238 233 228 226 228 232 239 242 239 235 240 246 249 256 263 267 271 277 282 285 287 289 293 296 298 300 300 300 298 295 291 287 283 279 276 275 275 274 274
279 277 273 271 271 269 268 267 264 260 256 254 253 249 247 247 245 244 244 245 244 237 236 244 245 235 231 232 233 235 240 244 245 245 248 250 252 255 259 264 270 277 283 289 292 295 298 300 300 301 300 299 298 296 294 291 286 283 279 276 274 272 270
278 275 273 271 269 268 266 264 262 259 257 258 258 251 247 249 253 251 243 243 245 242 240 242 239 235 235 236 235 237 241 245 248 249 250 253 256 259 262 267 274 281 287 293 297 300 302 303 304 303 302 301 300 299 298 294 291 288 284 280 276 274 273
277 274 272 270 268 266 265 263 259 257 255 255 253 252 251 251 253 252 246 247 251 245 238 235 236 238 240 239 238 239 241 242 245 247 251 257 262 265 268 271 277 282 288 293 297 297 296 297 298 296 295 296 296 296 295 294 293 291 289 286 282 280 279
281 280 277 274 271 266 263 261 259 257 256 254 252 251 251 251 251 248 244 248 249 241 235 234 237 240 242 240 239 239 238 240 243 248 253 258 263 267 270 275 280 285 290 294 294 292 292 295 296 294 292 291 289 288 286 285 286 286 287 285 283 282 283
279 279 277 274 270 267 265 263 261 259 258 257 256 252 249 249 248 246 245 247 243 237 236 237 238 241 243 241 237 235 236 239 244 249 254 258 263 269 276 282 286 289 293 293 291 291 294 297 297 295 293 292 289 286 283 281 280 280 279 278 275 273 273
278 276 274 271 268 266 264 262 261 261 260 258 256 254 252 250 246 244 246 244 238 236 237 237 239 243 243 238 232 229 231 238 244 248 252 259 267 275 282 286 287 288 291 291 291 293 295 296 295 295 294 293 290 287 286 284 282 280 279 278 278 277 276
279 276 274 273 270 267 265 263 261 260 259 259 258 256 254 251 248 246 244 238 236 237 237 238 242 242 236 230 225 222 225 230 235 238 246 262 273 277 278 282 286 289 293 295 296 296 297 297 297 298 297 294 290 287 286 284 282 280 279 279 280 282 284
279 277 276 274 271 269 267 265 263 260 260 260 259 257 255 253 248 244 239 235 236 239 240 241 239 230 223 221 218 217 218 219 225 234 244 258 266 268 271 278 287 293 297 298 294 294 296 297 298 298 296 293 287 284 284 283 280 279 278 276 274 275 275
279 278 277 275 272 270 267 265 263 262 262 262 259 258 255 247 239 236 235 234 238 242 243 240 230 219 216 217 217 219 222 226 236 248 257 262 267 272 277 283 288 290 291 289 286 287 290 293 296 296 293 289 285 283 282 279 276 274 272 269 269 269 267
276 275 275 273 270 268 266 264 263 262 262 261 256 252 248 240 234 232 234 239 245 246 240 232 223 216 214 216 217 222 230 240 251 260 267 271 277 282 286 288 284 280 278 279 281 284 286 288 291 290 288 286 284 282 280 277 276 275 272 270 269 269 269
273 271 269 268 268 266 265 264 263 261 259 254 244 237 236 235 232 234 241 249 248 237 225 219 218 216 216 217 222 231 246 259 268 273 277 281 287 289 286 283 277 276 278 282 283 285 287 289 289 288 287 287 286 284 282 280 278 276 274 273 272 271 271
271 268 268 269 268 267 265 263 262 260 254 246 236 230 232 237 239 241 242 237 224 212 207 208 211 214 217 225 237 250 261 269 274 280 284 288 292 290 285 280 275 277 281 284 284 285 286 286 285 285 285 285 285 285 284 281 278 276 274 274 273 272 270
269 267 269 271 269 267 264 260 259 256 247 238 231 229 234 240 240 234 225 211 201 199 200 203 207 214 229 247 261 267 272 277 280 284 288 290 292 291 288 285 284 286 290 290 289 289 288 287 286 286 287 289 290 291 288 283 278 276 275 273 272 271 270